Location: Unspecified
(0.0000°N, 0.0000°E)
Time: 20:42:40
(UTC+00:00)

Explorer 7 - Pass Details

Date: 19 June 2025
Orbit: 444 x 569 km, 50.3° (Epoch: 12 July)

Event Time Altitude Azimuth Distance (km) Brightness Sun altitude
Rises 11:21:36 0° 217° (SW) 2,725 10.1 64.6°
Reaches altitude 10° 11:23:53 10° 216° (SW) 1,812 9.3 64.9°
Maximum altitude 11:28:01 89° 140° (SE) 534 8.2 65.2°
Drops below altitude 10° 11:31:58 10° 37° (NE) 1,730 9.9 65.5°
Sets 11:34:07 0° 37° (NE) 2,590 10.6 65.6°
